SCP
0 0 0 1 1 1 0 0 0 0 0 0 0 0 0 0 0 0 0 0 0 0 0 0 0 0 0 0 0 0 0 0 0 0 0 0 0 0 0 0 0 0 0
0 0 1 1 1 1 1 0 0 0 0 0 0 0 0 0 0 0 0 0 0 0 0 0 0 0 0 0 0 0 0 0 0 0 0 0 0 0 0 0 0 0 0
0 0 1 1 1 1 1 1 0 0 0 0 0 0 0 0 0 0 0 0 0 0 0 0 0 0 0 0 0 0 0 0 0 0 0 0 0 0 0 0 0 0 0
1 1 1 1 1 1 1 1 0 0 0 0 0 0 0 0 0 0 0 0 0 0 0 0 0 0 0 0 0 0 0 0 0 0 0 0 0 0 0 0 0 0 0
1 1 1 1 1 1 1 1 1 0 0 0 0 0 0 0 0 0 0 0 0 0 0 0 0 0 0 0 0 0 0 0 0 0 0 0 0 0 0 0 0 0 0
1 1 1 1 1 1 1 1 1 1 0 0 0 0 0 0 0 0 0 0 0 0 0 0 0 0 0 0 0 0 0 0 0 0 0 0 0 0 0 0 0 0 0
1 1 1 1 1 1 1 1 1 1 0 0 0 0 0 0 0 0 0 0 0 0 0 0 0 0 0 0 0 0 0 0 0 0 0 0 0 0 0 0 0 0 0
1 1 1 1 1 1 1 1 1 1 1 0 0 0 0 0 0 0 0 0 0 0 0 0 0 0 0 0 0 0 0 0 0 0 0 0 0 0 0 0 0 0 0
1 1 1 1 1 1 1 1 1 1 1 0 0 0 0 0 0 0 0 0 0 0 0 0 0 0 0 0 0 0 0 0 0 0 0 0 0 0 0 0 0 0 0
1 1 1 1 1 1 1 1 1 1 1 0 0 0 0 0 0 0 0 0 0 0 0 0 0 0 0 0 0 0 0 0 0 0 0 0 0 0 0 0 0 0 0
1 1 1 1 1 1 1 1 1 1 0 0 0 0 0 0 0 0 0 0 0 0 0 0 0 0 0 0 0 0 0 0 0 0 0 0 0 0 0 0 0 0 0
1 1 1 1 1 1 1 1 1 0 0 0 0 0 0 0 0 0 0 0 0 0 0 0 0 0 0 0 0 0 0 0 0 0 0 0 0 0 0 0 0 0 0
1 1 1 1 1 1 1 1 1 0 0 0 0 0 0 0 0 0 0 0 0 0 0 0 0 0 0 0 0 0 0 0 0 0 0 0 0 0 0 0 0 0 0
1 1 1 1 1 0 0 0 0 0 0 0 0 0 0 0 0 0 0 0 0 0 0 0 0 0 0 0 0 0 0 0 0 0 0 0 0 0 0 0 0 0 0
1 1 1 0 0 0 0 0 0 0 0 0 0 0 0 0 0 0 0 0 0 0 0 0 0 0 0 0 0 0 0 0 0 0 0 0 0 0 0 0 0 0 0
0 0 0 0 0 0 0 0 0 0 0 0 0 0 0 0 0 0 0 0 0 0 0 0 0 0 0 0 0 0 0 0 0 0 0 0 0 0 0 0 0 0 0
0 0 0 0 0 0 0 0 0 0 0 0 0 0 0 0 0 0 0 0 0 0 0 0 0 0 0 0 0 0 0 0 0 0 0 0 0 0 0 0 0 0 0
0 0 0 0 0 0 0 0 0 0 0 0 0 0 0 0 0 0 0 0 0 0 0 0 0 0 0 0 0 0 0 0 0 0 0 0 0 0 0 0 0 0 0
0 0 0 0 0 0 0 0 0 0 0 0 0 0 0 0 0 0 0 0 0 0 0 0 0 0 0 0 0 0 0 0 0 0 0 0 0 0 0 0 0 0 0
0 0 0 0 0 0 0 0 0 0 0 0 0 0 0 0 0 0 0 0 0 0 0 0 0 0 0 0 0 0 0 0 0 0 0 0 0 0 0 0 0 0 0
0 0 0 0 0 0 0 0 0 0 0 0 0 0 0 0 0 0 0 0 0 0 0 0 0 0 0 0 0 0 0 0 0 0 0 0 0 0 0 0 0 0 0
0 0 0 0 0 0 0 0 0 0 0 0 0 0 0 0 0 0 0 0 0 0 0 0 0 0 0 0 0 0 0 0 0 0 0 0 0 0 0 0 0 0 0
0 0 0 0 0 0 0 0 0 0 0 0 0 0 0 0 0 0 0 0 0 0 0 0 0 0 0 0 0 0 0 0 0 0 0 0 0 0 0 0 0 0 0
0 0 0 0 0 0 0 0 0 0 0 0 0 0 0 0 0 0 0 0 0 0 0 0 0 0 0 0 0 0 0 0 0 0 0 0 0 0 0 0 0 0 0
0 0 0 0 0 0 0 0 0 0 0 0 0 0 0 0 0 0 0 0 0 0 0 0 0 0 0 0 0 0 0 0 0 0 0 0 0 0 0 0 0 0 0
0 0 0 0 0 0 0 0 0 0 0 0 0 0 0 0 0 0 0 0 0 0 0 0 0 0 0 0 0 0 0 0 0 0 0 0 0 0 0 0 0 0 0
Wind_Speed
7 8 16 17 17 16 15 15 15 14 14 15 15 15 15 15 15 15 15 14 14 14 15 15 15 15 16 17 17 17 17 17 16 16 15 15 16 16 17 16 14 11 17
11 11 16 16 17 16 15 15 14 14 13 14 14 14 14 14 14 15 14 14 14 14 15 14 14 15 15 16 16 16 16 16 16 15 13 12 13 15 16 16 14 11 17
13 12 14 16 16 16 16 15 14 14 13 13 13 14 14 14 14 14 14 14 14 14 14 14 14 14 14 14 15 15 15 15 14 13 12 6 9 15 16 15 15 16 16
13 11 12 16 16 16 16 15 14 14 13 13 13 13 13 13 13 13 13 13 14 14 14 14 13 13 13 13 13 14 14 13 12 12 6 5 6 14 15 15 15 15 15
12 10 11 16 15 15 15 15 14 13 13 13 12 12 12 13 13 13 13 13 13 13 13 13 13 12 12 12 13 13 13 13 12 9 6 5 5 13 15 15 15 14 14
11 9 11 15 15 14 14 14 14 13 13 13 12 12 12 13 13 13 13 13 13 12 13 13 12 11 11 11 12 13 13 13 10 5 5 5 5 13 14 14 14 14 14
10 9 11 15 14 14 14 14 13 13 13 13 12 12 12 12 12 12 12 12 12 12 13 12 12 11 10 11 12 13 13 12 7 5 4 4 6 13 13 13 13 13 13
11 9 10 14 13 13 13 13 13 13 13 12 12 12 12 12 12 12 12 11 12 12 12 12 11 11 10 11 12 12 11 10 8 6 5 4 9 13 13 13 12 13 13
8 8 7 8 10 12 12 11 11 11 11 11 11 11 11 10 10 11 11 11 11 11 11 11 11 10 10 10 11 11 11 11 5 4 5 3 9 12 12 13 12 12 12
7 7 6 6 6 7 8 10 11 11 10 11 11 10 10 9 9 9 9 9 10 11 10 10 10 10 10 10 10 11 10 8 5 4 3 4 9 11 12 12 11 11 11
6 5 5 5 5 5 6 8 9 10 10 10 9 10 8 5 5 5 6 8 9 9 10 10 9 9 9 8 9 10 8 3 4 3 2 7 9 10 11 11 11 11 10
6 4 4 5 5 5 5 5 4 5 5 5 5 6 4 4 3 5 7 8 8 8 8 8 8 8 6 4 6 7 3 4 4 3 3 7 9 10 10 10 10 10 10
5 5 4 5 5 5 3 4 3 3 3 4 5 5 4 3 3 3 2 3 4 5 4 5 4 3 3 3 3 4 4 3 2 2 3 7 8 9 9 9 9 9 9
4 3 3 4 4 4 4 3 3 3 3 4 5 6 5 3 3 3 2 2 2 2 3 3 2 3 3 4 5 5 4 3 2 2 3 7 7 8 8 8 8 8 8
3 2 2 3 4 4 4 3 4 3 4 4 4 5 5 4 4 3 3 2 2 2 3 3 3 3 3 4 4 5 4 4 4 3 2 6 6 7 7 7 7 7 7
2 2 1 2 2 3 3 3 3 3 3 4 4 5 6 5 5 4 4 3 3 3 3 3 3 3 3 3 4 4 4 4 3 3 2 3 5 6 6 6 7 7 7
2 2 1 2 2 2 3 4 3 3 3 3 4 5 6 5 5 5 4 4 3 3 4 3 3 3 3 3 4 4 4 4 4 3 2 2 2 4 5 6 6 6 6
3 2 1 1 1 1 2 2 2 3 3 3 3 4 5 6 6 5 4 4 4 3 3 3 3 3 3 3 3 3 3 3 4 3 3 2 2 2 3 4 4 4 4
3 2 3 2 2 1 1 2 2 3 3 3 3 3 4 6 6 5 4 4 4 4 3 4 3 3 4 3 3 2 2 2 3 3 3 3 2 2 1 2 3 3 3
3 3 3 3 3 2 1 1 1 2 2 2 2 3 4 5 6 6 4 5 5 4 3 4 4 3 3 4 4 3 2 1 2 2 3 2 2 2 2 2 1 1 2
5 4 4 4 3 2 1 0 1 2 2 1 1 2 4 4 6 6 5 5 5 4 5 5 4 4 3 3 4 2 2 2 1 1 2 2 2 2 2 2 1 1 0
3 3 3 3 3 2 1 1 1 2 2 2 2 1 2 4 4 5 6 5 5 4 5 5 5 4 2 2 3 3 1 1 1 0 1 2 2 1 1 1 1 1 1
4 3 2 2 3 3 3 2 1 1 1 0 1 1 1 3 3 3 6 6 5 5 6 5 5 6 4 2 2 4 4 4 1 1 1 1 1 1 1 1 1 1 1
4 3 2 2 2 3 3 1 0 1 2 2 2 2 2 2 2 3 4 6 6 5 6 6 5 4 6 4 2 1 2 4 4 2 1 1 1 2 2 1 1 1 1
4 4 3 3 3 3 3 2 0 1 1 1 1 2 2 2 2 3 3 5 6 5 5 5 5 4 4 4 3 2 2 1 2 3 2 2 1 2 2 2 2 2 1
5 5 4 4 4 3 3 2 1 1 2 1 1 2 2 1 1 2 2 4 5 5 6 6 5 6 4 4 3 3 3 3 3 3 3 2 2 2 1 1 2 2 1
Wind_Direction
161 165 154 148 143 137 132 129 126 122 119 117 116 115 112 112 113 112 110 110 108 106 102 99 98 97 95 93 91 89 88 86 83 81 80 81 83 85 83 79 77 75 80
151 158 152 149 144 139 134 131 127 125 122 121 119 117 116 115 116 117 114 113 112 108 105 102 99 98 98 97 96 94 91 89 86 83 78 78 82 86 86 82 80 80 80
146 152 150 148 144 140 137 134 131 129 126 125 123 121 120 120 119 120 119 116 113 109 108 105 103 99 99 100 99 98 94 91 88 83 77 70 83 88 87 83 82 81 80
145 148 148 146 144 141 139 137 135 133 130 127 126 125 123 122 122 121 120 117 114 112 110 109 107 103 100 101 101 100 95 91 87 83 72 67 79 89 87 85 83 81 79
142 144 148 146 144 143 141 140 138 136 134 131 129 128 126 124 123 122 122 119 115 113 112 112 109 104 101 100 100 97 95 90 88 81 72 67 74 89 87 86 84 82 81
139 142 148 145 144 143 143 142 141 139 137 134 132 131 129 128 126 122 122 120 118 117 116 116 111 106 102 99 99 96 94 93 87 76 74 73 79 91 89 88 86 83 82
140 142 148 146 145 144 144 144 142 142 141 139 137 135 131 130 129 126 123 122 122 122 122 120 114 109 102 99 99 96 96 99 90 79 78 80 91 95 93 90 88 86 83
141 143 149 148 146 146 145 144 142 142 141 139 139 137 134 132 133 131 129 128 127 126 124 121 117 111 104 99 98 97 96 101 95 89 80 83 97 98 96 93 91 88 86
131 137 144 149 148 148 146 144 141 140 139 138 136 133 130 130 131 134 135 135 133 128 125 123 118 113 106 99 96 95 95 96 90 87 89 87 100 100 98 96 93 91 90
126 132 137 141 143 143 144 142 140 139 139 136 132 126 125 126 128 131 136 136 134 132 128 126 122 118 110 102 98 98 95 90 81 80 80 97 102 103 99 96 94 94 92
127 132 136 136 134 137 145 147 141 140 139 135 131 126 123 121 124 126 130 133 135 135 133 129 125 119 111 101 98 100 95 90 87 78 82 104 108 106 103 99 97 96 95
141 141 141 142 142 139 148 140 139 138 137 134 133 131 124 121 126 126 130 134 133 132 133 133 127 116 104 94 94 97 93 94 87 81 92 104 109 109 107 104 101 97 98
152 145 145 146 147 143 138 144 142 138 139 137 139 136 129 121 119 114 120 128 127 124 119 123 111 102 107 109 104 104 105 97 88 82 95 106 110 110 111 111 107 103 101
138 139 146 146 144 146 143 148 150 152 152 151 151 145 137 133 131 134 130 128 125 123 123 118 118 116 113 111 114 116 114 108 102 92 94 103 108 111 112 114 114 110 107
116 114 122 146 146 144 145 157 151 157 163 160 156 154 148 146 149 147 143 139 138 135 137 133 129 127 124 119 120 123 124 122 117 102 90 99 102 106 111 114 118 118 113
114 122 129 126 140 147 148 156 158 160 157 159 162 165 156 152 155 156 150 148 151 151 147 143 141 135 128 124 125 129 129 126 119 113 100 97 101 105 108 116 117 116 115
104 109 116 133 111 145 155 160 156 163 160 162 168 169 162 156 157 157 155 156 161 151 143 131 127 121 119 117 122 131 128 125 125 122 114 97 95 96 102 107 110 117 117
50 68 78 104 93 118 158 163 160 162 164 167 166 168 167 162 159 155 157 163 159 147 143 138 135 123 119 121 126 129 129 132 135 130 118 110 99 89 100 104 103 110 118
45 56 52 38 63 79 157 176 165 159 162 166 167 167 169 166 162 157 161 162 153 146 146 147 135 134 133 127 124 118 123 135 144 136 133 131 130 120 110 106 97 91 101
37 40 47 40 34 28 68 140 151 131 154 154 167 175 167 166 163 158 159 159 152 149 149 144 137 128 134 134 114 95 89 120 134 145 151 143 146 141 132 118 103 89 88
28 31 38 30 18 31 33 165 180 181 185 164 170 177 170 165 165 163 161 160 159 162 162 150 135 131 129 129 107 87 41 49 98 141 149 147 160 155 146 144 142 131 75
25 20 24 23 14 9 335 264 233 191 190 187 177 169 166 169 168 171 164 167 163 158 157 155 142 137 143 153 136 128 121 21 340 322 175 170 180 157 156 159 164 164 175
15 6 1 359 357 357 356 6 18 73 90 133 179 186 191 178 170 168 169 165 166 165 169 170 159 150 158 182 167 150 156 189 202 300 239 197 188 181 194 195 192 194 187
354 351 351 354 357 360 3 14 65 198 195 220 215 207 202 181 177 170 174 169 170 171 172 177 170 162 156 169 181 169 154 150 150 169 268 245 212 200 201 202 212 219 204
359 0 356 351 355 360 359 359 347 312 257 226 205 197 192 195 186 173 177 178 177 177 177 176 167 169 165 168 171 159 134 118 128 146 189 222 254 246 222 212 210 222 226
8 9 6 0 355 354 354 354 351 330 331 244 197 203 204 204 206 195 186 184 181 180 181 183 179 178 179 172 175 168 160 162 170 157 167 190 216 255 253 231 215 218 216